IZ0QWM-13 Scandriglia IT current weather conditions

sailwx.info

Wind from 048

Air temperature 21.7° C
Dewpoint 19.9° C

Last reported at 2015-Aug-01 02:45 UTC.
Time now 2015-Aug-01 03:35 UTC

Location: N 42°10' E 012°47'.
View on Google Maps.

See reports from other nearby stations

  
Tides and Currents Weather Stations Pressure Air Temp Water Temp Dewpoint Dewpoint Depression Visibility Wind Speed Wind Dir Waves Ship Positions
date/time (UTC)wind fromknots sea level pressurealtimeterstation pressurevisibilityair tempwater tempwave heightnotes
2015-Aug-01 02:45 048 21.7
2015-Aug-01 02:35 048 21.7
2015-Aug-01 02:25 048 21.1
2015-Aug-01 02:15 048 21.1
2015-Aug-01 02:05 048 21.1
2015-Aug-01 01:55 048 21.1
2015-Aug-01 01:45 090 21.1
2015-Aug-01 01:35 090 21.1
2015-Aug-01 01:25 090 21.1
2015-Aug-01 01:15 066 21.1
2015-Aug-01 01:05 066 21.7
2015-Aug-01 00:55 066 21.7
2015-Aug-01 00:45 135 21.7
2015-Aug-01 00:35 021 21.7
2015-Aug-01 00:25 021 22.2
2015-Aug-01 00:15 021 22.2
2015-Aug-01 00:05 021 21.7
2015-Jul-31 23:55 021 21.7
2015-Jul-31 23:45 021 22.2
2015-Jul-31 23:35 007 22.8
2015-Jul-31 23:25 007 22.2
2015-Jul-31 23:15 007 22.2
2015-Jul-31 23:05 007 22.2
2015-Jul-31 22:55 007 22.8
2015-Jul-31 22:45 007 22.8
2015-Jul-31 22:35 007 23.3
2015-Jul-31 22:25 007 23.3
2015-Jul-31 22:15 007 23.3
2015-Jul-31 22:05 007 23.9
2015-Jul-31 21:55 007 23.9
2015-Jul-31 21:45 007 23.9
2015-Jul-31 21:35 007 23.9
2015-Jul-31 21:25 007 24.4
2015-Jul-31 21:15 007 25.0
2015-Jul-31 21:05 007 25.0
2015-Jul-31 20:55 007 25.6
2015-Jul-31 20:45 007 25.0
2015-Jul-31 20:35 007 25.6
2015-Jul-31 20:25 007 25.6
2015-Jul-31 20:15 028 25.0
2015-Jul-31 20:05 028 25.6
2015-Jul-31 19:55 028 26.1
2015-Jul-31 19:45 028 26.1
2015-Jul-31 19:35 028 26.1
2015-Jul-31 19:25 028 26.1
2015-Jul-31 19:15 028 26.7
2015-Jul-31 19:05 028 27.2
2015-Jul-31 18:55 028 27.2
2015-Jul-31 18:45 028 28.3
2015-Jul-31 18:35 028 28.3
2015-Jul-31 18:25 028 28.3
2015-Jul-31 18:15 028 28.9
2015-Jul-31 18:05 028 28.3
2015-Jul-31 17:55 028 29.4
2015-Jul-31 17:45 028 29.4
2015-Jul-31 17:35 285 30.0
2015-Jul-31 17:25 321 31.1
2015-Jul-31 17:15 321 31.7
2015-Jul-31 17:05 245 31.7
2015-Jul-31 16:55 245 31.1
2015-Jul-31 16:45 245 30.6
2015-Jul-31 16:35 269 30.6
2015-Jul-31 16:25 284 30.0
2015-Jul-31 16:14 228 30.6
2015-Jul-31 16:04 267 31.1
2015-Jul-31 15:54 238 2 gusting 3 30.6
2015-Jul-31 15:44 264 1 gusting 4 30.6
2015-Jul-31 15:34 278 31.1
2015-Jul-31 15:24 288 31.7
2015-Jul-31 15:14 200 31.7
2015-Jul-31 15:04 288 1 gusting 1 31.1
2015-Jul-31 14:54 246 3 gusting 4 31.7
2015-Jul-31 14:44 297 31.7
2015-Jul-31 14:34 314 3 gusting 4 31.7
2015-Jul-31 14:24 350 31.1
2015-Jul-31 14:14 267 30.6
2015-Jul-31 14:04 267 30.0
2015-Jul-31 13:54 267 30.0
2015-Jul-31 13:44 267 30.0
2015-Jul-31 13:34 267 30.0
2015-Jul-31 13:24 179 30.0
2015-Jul-31 13:14 179 30.0
2015-Jul-31 13:04 179 30.6
2015-Jul-31 12:54 195 30.6
2015-Jul-31 12:44 135 31.1
2015-Jul-31 12:34 202 6 gusting 8 31.7
2015-Jul-31 12:24 172 32.2
2015-Jul-31 12:14 186 2 gusting 4 31.1
2015-Jul-31 12:04 219 31.1
2015-Jul-31 11:54 122 4 gusting 8 30.6
2015-Jul-31 11:44 169 30.0
2015-Jul-31 11:34 170 30.0
2015-Jul-31 11:24 176 30.0
2015-Jul-31 11:14 181 29.4
2015-Jul-31 11:04 156 2 gusting 4 29.4
2015-Jul-31 10:54 197 28.9
2015-Jul-31 10:44 277 2 gusting 3 28.9
2015-Jul-31 10:34 232 28.9
2015-Jul-31 10:24 008 28.3
2015-Jul-31 10:14 163 28.3
2015-Jul-31 10:04 232 28.3
2015-Jul-31 09:54 291 27.8
2015-Jul-31 09:44 294 27.2
2015-Jul-31 09:34 013 27.2
2015-Jul-31 09:24 319 27.2
2015-Jul-31 09:14 262 26.7
2015-Jul-31 09:04 202 3 gusting 3 26.7
2015-Jul-31 08:54 190 27.2
2015-Jul-31 08:44 134 2 gusting 7 26.7
2015-Jul-31 08:34 202 4 gusting 5 27.2
2015-Jul-31 08:24 165 3 gusting 6 27.2
2015-Jul-31 08:14 211 26.1
2015-Jul-31 08:04 063 26.1
2015-Jul-31 07:54 063 25.6
2015-Jul-31 07:44 063 25.6
2015-Jul-31 07:34 063 25.0
2015-Jul-31 07:24 063 25.0
2015-Jul-31 07:14 063 24.4
2015-Jul-31 07:04 063 23.9
2015-Jul-31 06:54 063 23.9
2015-Jul-31 06:44 063 23.3
2015-Jul-31 06:34 063 23.3
2015-Jul-31 06:24 063 23.3
2015-Jul-31 06:14 063 23.3
2015-Jul-31 06:04 063 22.8
2015-Jul-31 05:54 063 22.2
2015-Jul-31 05:44 063 21.7
2015-Jul-31 05:34 063 21.1
2015-Jul-31 05:24 080 21.1
2015-Jul-31 05:14 082 20.6
2015-Jul-31 05:04 051 20.6
2015-Jul-31 04:54 051 20.6
2015-Jul-31 04:44 051 20.6
2015-Jul-31 04:34 051 20.6
2015-Jul-31 04:24 089 20.6
2015-Jul-31 04:14 089 20.6
2015-Jul-31 04:04 091 20.6
2015-Jul-31 03:54 091 20.6
2015-Jul-31 03:44 091 20.6
2015-Jul-31 03:34 091 21.1
2015-Jul-31 03:24 091 21.1
2015-Jul-31 03:14 091 21.1
2015-Jul-31 03:04 091 21.1
2015-Jul-31 02:54 091 21.7
2015-Jul-31 02:44 091 21.7
2015-Jul-31 02:34 091 21.7
2015-Jul-31 02:24 091 21.7
2015-Jul-31 02:14 091 22.2
2015-Jul-31 02:04 091 21.7
2015-Jul-31 01:54 091 21.7
2015-Jul-31 01:44 091 21.7
2015-Jul-31 01:34 091 21.7
2015-Jul-31 01:24 091 21.7
2015-Jul-31 01:14 091 22.2
2015-Jul-31 01:04 091 22.2
2015-Jul-31 00:54 091 22.2
2015-Jul-31 00:44 091 22.2
2015-Jul-31 00:34 091 22.2
2015-Jul-31 00:24 091 22.2
2015-Jul-31 00:14 091 22.2
2015-Jul-31 00:04 091 21.7
2015-Jul-30 23:54 065 22.2
2015-Jul-30 23:44 046 22.2
2015-Jul-30 23:34 046 22.2
2015-Jul-30 23:24 072 21.7
2015-Jul-30 23:14 072 21.7
2015-Jul-30 23:04 072 21.7
2015-Jul-30 22:54 053 22.8
2015-Jul-30 22:44 022 22.2
2015-Jul-30 22:34 022 22.2
2015-Jul-30 22:24 041 21.7
2015-Jul-30 22:14 058 21.1
2015-Jul-30 22:04 080 21.1
2015-Jul-30 21:54 091 22.2
2015-Jul-30 21:44 022 22.2
2015-Jul-30 21:34 022 22.2
2015-Jul-30 21:24 022 22.8
2015-Jul-30 21:14 022 22.2
2015-Jul-30 21:04 022 22.8
2015-Jul-30 20:54 022 22.8
2015-Jul-30 20:44 046 23.3
2015-Jul-30 20:34 046 23.3
2015-Jul-30 20:24 046 23.3
2015-Jul-30 20:14 150 23.9
2015-Jul-30 20:04 150 24.4
2015-Jul-30 19:54 150 25.0
2015-Jul-30 19:44 150 25.0
2015-Jul-30 19:34 150 25.0
2015-Jul-30 19:24 150 25.6
2015-Jul-30 19:14 150 25.0
2015-Jul-30 19:04 150 25.6
2015-Jul-30 18:54 359 25.6
2015-Jul-30 18:44 201 26.1
2015-Jul-30 18:34 212 26.7
2015-Jul-30 18:24 184 2 gusting 4 27.8
2015-Jul-30 18:14 070 28.3
2015-Jul-30 18:04 070 28.9
2015-Jul-30 17:54 070 28.3
2015-Jul-30 17:44 070 28.9
2015-Jul-30 17:34 070 28.3
2015-Jul-30 17:24 070 27.2
2015-Jul-30 17:14 179 3 gusting 4 27.2
2015-Jul-30 17:04 014 27.2
2015-Jul-30 16:54 014 26.7
2015-Jul-30 16:44 080 27.2
2015-Jul-30 16:34 158 27.2
2015-Jul-30 16:24 194 3 gusting 7 27.8
2015-Jul-30 16:14 214 28.9
2015-Jul-30 16:04 215 3 gusting 7 30.6
2015-Jul-30 15:54 240 6 gusting 14 30.6
2015-Jul-30 15:44 253 7 gusting 7 31.1
2015-Jul-30 15:34 273 2 gusting 4 31.7
2015-Jul-30 15:24 255 32.2
2015-Jul-30 15:14 263 32.2
2015-Jul-30 15:04 330 32.2
2015-Jul-30 14:54 179 32.2
2015-Jul-30 14:44 172 32.2
2015-Jul-30 14:34 359 32.2
2015-Jul-30 14:24 240 31.7
2015-Jul-30 14:14 167 4 gusting 5 31.7
2015-Jul-30 14:04 202 6 gusting 10 31.7
2015-Jul-30 13:54 292 2 gusting 4 31.7
2015-Jul-30 13:44 197 31.7
2015-Jul-30 13:34 093 31.1
2015-Jul-30 13:24 277 31.1
2015-Jul-30 13:14 267 4 gusting 5 31.1
2015-Jul-30 13:04 252 2 gusting 3 31.1
2015-Jul-30 12:54 259 2 gusting 6 31.1
2015-Jul-30 12:44 194 3 gusting 5 31.1
2015-Jul-30 12:34 205 2 gusting 5 31.1
2015-Jul-30 12:24 232 30.6
2015-Jul-30 12:14 207 2 gusting 5 31.1
2015-Jul-30 12:04 177 30.6
2015-Jul-30 11:54 152 2 gusting 8 30.6
2015-Jul-30 11:44 079 30.6
2015-Jul-30 11:34 141 3 gusting 8 30.0
2015-Jul-30 11:24 191 3 gusting 8 30.0
2015-Jul-30 11:14 180 5 gusting 9 29.4
2015-Jul-30 11:04 184 6 gusting 7 29.4
2015-Jul-30 10:54 153 3 gusting 10 30.0
2015-Jul-30 10:44 172 6 gusting 7 29.4
2015-Jul-30 10:34 245 3 gusting 6 28.9
2015-Jul-30 10:24 195 28.9
2015-Jul-30 10:14 252 4 gusting 8 28.9
2015-Jul-30 10:04 243 4 gusting 5 28.9
2015-Jul-30 09:54 193 2 gusting 4 28.3
2015-Jul-30 09:44 145 3 gusting 8 28.3
2015-Jul-30 09:34 163 1 gusting 1 28.3
2015-Jul-30 09:24 167 3 gusting 9 28.3
2015-Jul-30 09:14 202 27.8
2015-Jul-30 09:04 208 27.8
2015-Jul-30 08:54 193 5 gusting 8 27.8
2015-Jul-30 08:44 181 27.2
2015-Jul-30 08:34 194 3 gusting 7 27.2
2015-Jul-30 08:24 198 5 gusting 6 27.2
2015-Jul-30 08:14 219 1 gusting 1 26.7
2015-Jul-30 08:04 194 5 gusting 8 26.7
2015-Jul-30 07:54 053 26.1
2015-Jul-30 07:44 053 26.7
2015-Jul-30 07:34 053 26.1
2015-Jul-30 07:24 053 26.1
2015-Jul-30 07:14 053 25.0
2015-Jul-30 07:04 053 25.0
2015-Jul-30 06:54 053 24.4
2015-Jul-30 06:44 053 23.9
2015-Jul-30 06:34 053 22.8
2015-Jul-30 06:24 053 22.8
2015-Jul-30 06:14 053 21.7
2015-Jul-30 06:04 053 21.7
2015-Jul-30 05:54 053 20.6
2015-Jul-30 05:44 083 20.6
2015-Jul-30 05:34 039 20.0
2015-Jul-30 05:24 087 20.0
2015-Jul-30 05:14 087 20.0
2015-Jul-30 05:04 087 19.4
2015-Jul-30 04:54 087 18.9
2015-Jul-30 04:44 087 18.9
2015-Jul-30 04:34 087 18.9
2015-Jul-30 04:24 087 18.9
2015-Jul-30 04:14 096 18.9
2015-Jul-30 04:04 096 19.4
2015-Jul-30 03:54 034 18.9
2015-Jul-30 03:44 048 18.9
2015-Jul-30 03:34 096 18.9
2015-Jul-30 03:24 028 19.4
2015-Jul-30 03:14 028 18.9
2015-Jul-30 03:04 035 2 gusting 3 18.9